User: anonymous   Login
Location: Unspecified
(0.0000°N, 0.0000°E)
Time: 08:25:29
(UTC+00:00)
Language:

Tiros 1 - Orbit

View from above orbital plane
View from above orbital plane
View from above satellite
View from above satellite

Ground track
Ground track

The orbit data is extracted from the following two-line orbital elements,

1 00029U 60002B   15026.01575647  .00000231  00000-0  66382-4 0  4370
2 00029 048.3774 239.9389 0023999 090.4943 269.8718 14.73592662928094
Epoch (UTC): 26 January 2015 00:22:41
Eccentricity: 0.0023999
inclination: 48.3774°
perigee height: 633 km
apogee height: 666 km
right ascension of ascending node: 239.9389°
argument of perigee: 90.4943°
revolutions per day: 14.73592662
mean anomaly at epoch: 269.8718°
orbit number at epoch: 92809

The dashed part of the orbit path shows where the satellite is in the earth's shadow,  

DLR